Freddy Ramirez

Recruteur en chef - Leones
13 Févr 2028
Dimanche
Processus

Personnalité

Adaptabilité (1) Ambition (7) Controverse (13) Loyauté (12) Pression (15) Professionnalisme (8) Sportivité (11) Tempérament (3)

Profil

Style d'entraînement Démocratique
Diplôme Continental C
Détermination 3
Gestion des joueurs 5
Motivation 3
Discipline 6
Satisfaction professionnelle
100%
Fatigue
0%
Rôle Recruteur en chef
Salaire 51.6K p/s
Contrat 14.03.2029

Performance

Comportement Bon
Efficacité de l'entraînement
38%
Développement des joueurs
15%
Prévention des blessures
50%
Mise en place tactique
25%

Événements récents

A participé à une réunion de recrutement 14j
En formation continue 21j
A participé à une réunion de recrutement 21j
En formation continue 21j
En formation continue 21j
En formation continue 21j
En formation continue 28j
En formation continue 28j

Suivi en cours

121
Joueur Club Statut Capacité Confiance Observé Dernière observation Dernier vote
Cristian Barros Cerro Actif 120 / 101 40% 2 27.12.2027 -
Lautaro Gordillo Colegiales Actif 103 / 104 40% 1 27.12.2027 -
Juan Diego Verdeza Barranquilla Actif 87 / 82 51% 1 07.12.2027 -
Brayan Nazarith Bogota Actif 94 / 78 44% 1 28.12.2026 -
Alex Vigo Independiente Rivadavia Actif 122 / 109 40% 4 29.11.2026 -
Alonso Aceves Monterrey Actif 119 / 105 40% 1 29.11.2026 -
Dylan Guajardo Dorados Actif 105 / 106 40% 3 28.11.2026 -
Ángel Zapata Tijuana Actif 97 / 106 40% 1 28.11.2026 -
Agustín Benítez Defensores Actif 109 / 110 40% 1 28.11.2026 -
Juan Ignacio Méndez Instituto Actif 127 / 127 40% 3 26.11.2026 -
Pedro Pedraza Pachuca Actif 126 / 110 40% 2 26.11.2026 -
Eneko Astigarraga Real Sociedad Actif 107 / 95 40% 1 25.11.2026 -
Rômulo Tigres Actif 119 / 114 40% 7 24.11.2026 -
Aldo López Santos Laguna Actif 123 / 124 40% 1 24.11.2026 -
Brian Farioli Estudiantes Actif 105 / 119 40% 1 23.11.2026 -
Sandi Zajc NK Domzale Actif 128 / 121 40% 1 22.11.2026 -
Alan Barrionuevo Tigre Actif 117 / 118 40% 2 20.11.2026 -
Santiago García Imotski Actif 93 / 81 40% 1 20.11.2026 -
Mauricio Guzmán Tristán Suárez Actif 120 / 123 40% 1 18.11.2026 -
Juan Sierra La Equidad Actif 114 / 135 40% 3 16.11.2026 -
Emiliano Álvarez Progreso Actif 115 / 118 40% 2 16.11.2026 -
Paolo Yrizar Chernomorets Actif 109 / 95 40% 1 16.11.2026 -
Ian Pérez Defensores Actif 110 / 105 40% 1 14.11.2026 -
Camilo Martinez Cortulua Actif 113 / 130 40% 2 13.11.2026 -
Gonzalo Pérez Lanús Actif 114 / 109 40% 3 10.11.2026 -
Joel Orlando Almagro Actif 98 / 117 40% 1 10.11.2026 -
Nicolás Retamar Ferro Carril Oeste Actif 124 / 124 40% 1 10.11.2026 -
Damián Adín San Miguel Actif 109 / 116 40% 1 07.11.2026 -
Martín Garay Tigre Actif 124 / 107 40% 1 06.11.2026 -
Brian Orosco Godoy Cruz Actif 120 / 118 40% 2 05.11.2026 -
Renzo Reynaga Patronato Actif 123 / 117 40% 1 05.11.2026 -
Vicente Poggi Godoy Cruz Actif 122 / 116 40% 4 03.11.2026 -
Bruno Palazzo Nueva Chicago Actif 125 / 115 40% 1 02.11.2026 -
Facundo Melillán Güemes Actif 106 / 110 40% 1 01.11.2026 -
Matías Rapetti Defensores Unidos Actif 99 / 104 40% 1 01.11.2026 -
Brian Calderara Chacarita Juniors Actif 122 / 115 40% 3 31.10.2026 -
Matías Machado Racing Actif 124 / 101 40% 1 31.10.2026 -
Pedro Ramírez Deportivo Riestra Actif 125 / 120 40% 2 30.10.2026 -
Alejo Tabares All Boys Actif 128 / 120 40% 2 29.10.2026 -
Elías Pereyra Barracas Central Actif 128 / 126 40% 1 29.10.2026 -
Ismael Cortez Gimnasia y Esgrima Actif 127 / 109 40% 1 28.10.2026 -
Gonzalo Mottes Chacarita Juniors Actif 113 / 105 40% 1 26.10.2026 -
Facundo Waller Huracán Actif 115 / 131 40% 1 26.10.2026 -
Daniel Amador Chiapas Actif 91 / 110 40% 1 26.10.2026 -
José Barreto Quilmes Actif 104 / 100 40% 1 25.10.2026 -
Blas Armoa Gimnasia y Esgrima Actif 108 / 121 40% 1 25.10.2026 -
Rodrigo López Pumas UNAM Actif 120 / 115 40% 1 23.10.2026 -
Nicolás Mosca Atlanta Actif 98 / 105 40% 1 23.10.2026 -
Facundo Miño Deportivo Riestra Actif 115 / 118 40% 2 22.10.2026 -
Luciano Cosentino Wanderers Actif 118 / 129 40% 1 20.10.2026 -
Santiago Apa All Boys Actif 115 / 107 40% 1 20.10.2026 -
Milton Valenzuela Atlas Actif 117 / 106 40% 2 17.10.2026 -
Thomas Ortega Quilmes Actif 102 / 120 40% 1 17.10.2026 -
Franco Malagueño Colegiales Actif 113 / 102 40% 1 17.10.2026 -
Facundo Ardiles Estudiantes Actif 110 / 120 40% 2 14.10.2026 -
Ricardo Echeverría Santos Laguna Actif 121 / 116 40% 1 13.10.2026 -
Agustín Gallo Tristán Suárez Actif 123 / 115 40% 1 13.10.2026 -
Ulises Sánchez Gimnasia y Esgrima Actif 122 / 135 40% 1 11.10.2026 -
Juan Velázquez Belgrano Actif 108 / 121 40% 1 11.10.2026 -
Alejandro Molina Tristán Suárez Actif 109 / 110 40% 1 08.10.2026 -
Santiago Martínez Godoy Cruz Actif 117 / 121 40% 1 07.10.2026 -
Esteban Obregón Montevideo City Torque Actif 116 / 128 40% 1 07.10.2026 -
Fernando Bersano Madryn Actif 122 / 112 40% 1 07.10.2026 -
Matías Contrera Hrvatski Dragovoljac Actif 103 / 109 40% 1 06.10.2026 -
Mauro Osores San Martín SJ Actif 108 / 119 40% 1 06.10.2026 -
Fernando Miranda Colegiales Actif 101 / 96 40% 1 04.10.2026 -
Agustín Dattola Almirante Brown Actif 123 / 117 40% 1 01.10.2026 -
Facundo Di Biasi Gimnasia La Plata Actif 129 / 123 40% 1 30.09.2026 -
Gonzalo Flores Almirante Brown Actif 122 / 110 40% 1 30.09.2026 -
Tomás Castro Ponce Atlanta Actif 109 / 120 40% 1 28.09.2026 -
Fernando Rodríguez Almirante Brown Actif 103 / 97 40% 1 27.09.2026 -
Elias Manoel Tijuana Actif 101 / 117 40% 1 22.09.2026 -
Cristopher Rodríguez Estudiantes de Merida Actif 113 / 96 40% 2 20.09.2026 -
Lautaro Pertusatti River Plate Actif 92 / 96 40% 2 20.09.2026 -
Mauricio Isais Pachuca Actif 111 / 118 40% 2 19.09.2026 -
Julián Brea Cobresal Actif 108 / 90 40% 1 18.09.2026 -
Pablo Monroy Pumas UNAM Actif 127 / 129 40% 4 16.09.2026 -
Sebastián Pereira Union Espanola Actif 108 / 102 40% 1 16.09.2026 -
Diego Hernández Aguilas Doradas Actif 127 / 115 40% 1 15.09.2026 -
Alejo Cruz Juventud Actif 112 / 119 40% 1 15.09.2026 -
Franco González Penarol Actif 103 / 124 40% 1 15.09.2026 -
David Morosini Juventud Actif 95 / 113 40% 1 13.09.2026 -
Nicolás Fernandez Universidad de Chile Actif 105 / 94 40% 3 12.09.2026 -
Abraham Bahachille Carabobo Actif 92 / 91 40% 1 11.09.2026 -
Joaquín Trasante Danubio Actif 99 / 109 40% 1 11.09.2026 -
Agustín Maidana San Marcos de Arica Actif 114 / 96 40% 3 10.09.2026 -
Bruno Jáuregui Union Espanola Actif 92 / 97 40% 1 10.09.2026 -
Vicente Durán San Luis Actif 93 / 94 40% 1 09.09.2026 -
Raimundo Rebolledo Union La Calera Actif 96 / 101 40% 1 08.09.2026 -
Jorge Rodríguez Atlas Actif 93 / 108 40% 2 07.09.2026 -
Yolfran Caricote Metropolitanos Actif 109 / 97 40% 1 07.09.2026 -
Miguel Brizuela O'Higgins Actif 123 / 107 40% 3 06.09.2026 -
Iván Rozas Antofagasta Actif 116 / 99 40% 1 06.09.2026 -
Ramiro Ruiz Rodríguez Atlético Tucumán Actif 113 / 113 40% 1 06.09.2026 -
Martín Villarroel Santiago Wanderers Actif 89 / 91 40% 1 05.09.2026 -
Nahuel Brunet Godoy Cruz Actif 112 / 112 40% 2 04.09.2026 -
Alejandro Rincon Llaneros Actif 114 / 96 40% 1 04.09.2026 -
Cristhián Rivas Estudiantes de Merida Actif 126 / 110 40% 1 01.09.2026 -
Tomás Galván River Plate Actif 120 / 137 40% 2 31.08.2026 -
Martín Ormeño Union Espanola Actif 95 / 104 40% 1 31.08.2026 -
Juan Camilo Pérez Carabobo Actif 124 / 120 40% 1 31.08.2026 -
Bruno Hernández Cerro Largo Actif 105 / 106 40% 1 31.08.2026 -
Alexis Gutiérrez Club America Actif 126 / 121 40% 2 28.08.2026 -
Enzo Ferrario Audax Italiano Actif 89 / 96 40% 1 26.08.2026 -
Yeferson Rincon Atletico Venezuela Actif 88 / 111 40% 1 25.08.2026 -
Edgar Zaldívar Atlas Actif 107 / 115 40% 1 24.08.2026 -
Delvin Alfonzo Deportivo Tachira Actif 110 / 108 40% 1 23.08.2026 -
Carlos Adrián Sánchez Pachuca Actif 108 / 104 40% 1 23.08.2026 -
Walter Tandazo Melgar Actif 104 / 104 40% 1 20.08.2026 -
Johan Madrid Sporting Cristal Actif 110 / 108 40% 1 19.08.2026 -
Tomás Ángel FC Midtjylland Actif 114 / 133 40% 1 19.08.2026 -
Jorge Berlanga Pachuca Actif 104 / 118 40% 1 13.08.2026 -
Carlos Faya Deportivo La Guaira Actif 109 / 121 40% 2 12.08.2026 -
Facundo Velazco San Marcos de Arica Actif 92 / 110 40% 1 11.08.2026 -
Santiago Simón Toluca Actif 120 / 113 40% 1 11.08.2026 -
Pablo Ortíz Tijuana Actif 101 / 103 40% 1 08.08.2026 -
Christian Ebere Cruz Azul Actif 114 / 132 40% 1 07.08.2026 -
Lucas González Nacional Actif 114 / 99 40% 1 07.08.2026 -
Valentín Fascendini Talleres Actif 129 / 127 40% 1 05.08.2026 -
Juan Manuel Requena Universitario Actif 107 / 108 40% 1 03.08.2026 -
Pablo Bennevendo Pumas UNAM Actif 109 / 109 40% 1 03.08.2026 -